CAPE
1 11 10 8 6 2 10 26 1 0 4 18 1 1 0 0 0 0 0 0 0 0 0 0 0 0 0 0 0 0 0 26 0 0 0 8 31 3 0 2 0 0 0 0
16 2 2 7 1 14 8 9 7 4 35 21 1 1 0 3 0 0 0 0 0 0 0 0 0 0 0 0 2 0 0 0 0 0 0 1 7 0 0 0 0 0 0 0
0 0 1 4 3 10 22 3 0 0 17 0 0 0 0 1 0 0 1 0 0 0 0 0 0 0 0 12 8 1 2 3 0 0 0 0 0 0 0 1 0 0 0 0
27 7 0 28 25 22 2 4 0 0 0 2 8 2 0 0 0 0 0 1 0 0 0 0 0 0 0 3 9 1 1 0 0 0 0 0 0 0 0 0 0 0 0 0
11 18 37 31 39 29 0 0 0 0 0 0 0 4 7 4 0 0 0 2 0 0 0 0 0 2 0 0 4 1 0 0 0 0 0 0 0 0 0 0 0 0 0 0
5 10 4 14 26 24 2 0 0 1 0 0 0 0 0 1 1 2 1 0 3 0 0 4 0 7 2 4 0 1 2 3 0 1 0 0 0 0 0 0 0 0 0 0
0 4 27 10 10 10 0 0 0 0 0 0 0 0 0 0 0 0 0 9 8 0 1 1 0 0 1 0 0 0 1 1 4 3 0 0 0 0 0 0 0 0 0 0
4 14 15 9 19 17 0 2 8 4 0 0 0 0 0 0 0 0 0 0 0 8 2 0 0 0 0 0 0 0 0 0 0 11 6 0 0 0 0 0 0 0 0 0
9 0 0 8 12 42 11 4 3 3 0 0 0 1 0 0 0 0 0 0 1 6 0 0 0 0 0 0 0 0 0 0 0 0 0 0 0 0 0 0 0 0 2 0
15 8 12 13 12 11 6 2 4 4 3 1 0 0 0 1 5 0 0 1 3 0 0 0 0 0 0 0 0 0 0 0 0 0 0 0 0 0 4 0 0 0 0 0
12 20 14 9 21 45 3 1 1 1 1 0 0 3 1 0 0 0 0 0 0 0 0 0 0 0 0 0 0 0 0 0 0 5 0 0 0 0 0 0 0 0 0 0
0 0 2 2 26 45 1 1 0 3 1 0 0 1 10 0 0 0 0 0 0 0 0 0 0 0 0 0 0 0 0 0 0 0 0 0 0 6 1 17 23 0 1 0
0 0 0 5 6 40 1 3 2 1 0 0 0 0 0 2 0 0 1 1 0 0 0 0 0 0 0 0 0 0 0 0 0 0 0 0 0 0 0 18 1 1 100 87
0 0 0 0 10 27 29 6 5 1 4 0 0 0 0 0 0 0 0 0 0 0 0 0 0 0 0 0 0 0 0 0 0 0 0 0 0 0 0 0 0 3 12 45
0 0 0 0 0 2 2 0 0 0 3 0 0 0 0 0 0 0 0 0 0 0 0 0 0 0 0 0 0 0 0 0 0 0 0 0 0 0 0 0 0 0 1 0
0 0 0 0 10 9 0 0 0 0 0 1 0 0 0 0 0 0 0 0 0 0 0 0 0 3 2 0 0 0 0 0 0 0 0 0 0 0 0 0 0 0 0 0
0 0 2 21 35 0 0 0 0 0 0 0 0 0 0 0 0 0 0 0 0 0 0 0 0 0 8 0 0 0 0 0 0 0 0 0 0 0 0 0 0 0 0 0
7 4 2 7 8 10 0 0 1 5 4 0 0 0 0 0 0 0 0 0 0 0 0 0 0 0 0 0 0 0 0 0 0 0 0 0 0 0 0 0 0 0 0 0
3 7 0 0 1 2 0 0 0 0 0 0 0 0 0 0 0 0 0 0 0 0 0 0 0 0 0 0 0 0 0 0 0 0 0 0 0 0 0 0 0 0 0 0
17 0 0 0 1 0 6 10 0 1 0 0 0 0 0 0 0 0 0 0 0 0 0 0 0 0 0 0 0 0 0 0 0 0 0 0 0 0 0 0 0 0 0 0
1 0 0 0 2 1 0 0 0 0 1 0 0 0 0 0 0 0 0 0 0 0 0 0 0 0 0 0 0 0 0 0 0 0 0 0 0 0 0 0 0 0 0 0
0 0 3 2 0 0 0 0 0 0 0 0 0 0 0 0 0 0 0 0 0 0 0 0 0 0 1 0 0 0 0 0 0 0 0 0 0 0 0 0 0 0 1 0
1 0 0 0 0 0 0 0 0 0 0 0 0 0 0 0 0 0 0 0 0 2 0 0 0 0 0 0 0 0 0 0 0 0 0 0 0 0 0 0 0 0 0 0
0 0 0 0 0 0 0 0 0 0 0 0 0 0 0 0 0 0 0 0 0 0 0 0 0 0 0 0 0 0 0 0 0 0 0 0 0 0 0 0 0 1 0 0
0 0 0 0 0 0 2 0 0 0 0 0 1 0 0 0 0 0 0 0 0 0 0 0 0 0 0 0 0 0 0 0 0 1 0 0 0 0 0 1 2 0 0 0
0 0 0 0 0 0 0 0 0 0 0 0 0 0 0 0 0 0 0 0 0 0 0 0 0 0 0 0 1 1 1 0 0 0 0 0 0 0 0 0 0 0 0 0
0 0 0 0 0 0 0 0 0 0 0 0 0 2 0 0 1 0 0 0 0 0 0 0 0 0 0 0 0 0 2 0 0 0 0 0 0 0 0 0 0 0 0 0
CIN
-19 -13 -13 -29 -25 -35 -14 -2 -2 -0 -33 -1 -2 -5 -0 -0 -0 -0 -0 -0 -0 -0 -0 -0 -0 -0 -0 -0 -0 -0 -1 -6 -0 -0 -0 -40 -35 -4 -0 -11 -1 -0 -0 -0
-11 -9 -11 -12 -28 -18 -17 -0 -1 -15 -8 -0 -0 -4 -0 -0 -0 -0 -0 -0 -0 -0 -0 -0 -0 -0 -0 -0 -3 -0 -0 -0 -0 -0 -0 -12 -19 -0 -0 -0 -2 -0 -0 -0
-1 -0 -3 -6 -16 -19 -10 -3 -0 -0 -1 -0 -0 -0 -0 -0 -0 -0 -6 -3 -0 -0 -0 -0 -0 -0 -14 -38 -17 -25 -23 -6 -0 -0 -0 -0 -0 -0 -0 -4 -0 -0 -0 -0
-4 -10 -2 -5 -6 -10 -7 -8 -0 -0 -0 -0 -0 -0 -0 -0 -0 -0 -0 -3 -0 -0 -0 -0 -7 -0 -0 -32 -11 -18 -5 -0 -0 -0 -0 -0 -0 -0 -0 -0 -0 -0 -0 -0
-9 -5 -2 -5 -4 -4 -0 -0 -0 -0 -0 -0 -0 -2 -9 -1 -0 -0 -0 -0 -0 -0 -0 -0 -0 -28 -0 -0 -80 -49 -0 -0 -0 -0 -0 -0 -0 -0 -0 -0 -0 -0 -0 -0
-8 -8 -8 -8 -7 -2 -2 -1 -3 -1 -0 -0 -0 -0 -0 -2 -0 -3 -1 -0 -1 -0 -1 -22 -13 -19 -22 -35 -0 -38 -24 -36 -0 -7 -0 -0 -0 -0 -0 -0 -0 -0 -0 -0
-10 -2 -2 -5 -7 -2 -0 -0 -0 -0 -0 -0 -0 -0 -0 -0 -0 -0 -0 -13 -3 -0 -9 -34 -0 -0 -4 -0 -0 -0 -1 -16 -30 -20 -0 -0 -0 -0 -0 -0 -0 -0 -0 -0
-11 -6 -5 -6 -4 -3 -1 -1 -0 -1 -0 -0 -0 -0 -0 -0 -0 -0 -0 -0 -25 -15 -19 -0 -0 -0 -0 -0 -0 -0 -0 -48 -0 -4 -11 -2 -0 -0 -0 -0 -0 -0 -0 -0
-2 -0 -0 -6 -9 -2 -2 -1 -2 -6 -0 -0 -0 -0 -0 -0 -0 -0 -0 -0 -13 -17 -0 -0 -0 -0 -0 -0 -0 -0 -0 -0 -0 -0 -0 -0 -0 -0 -0 -0 -0 -0 -4 -0
-1 -4 -4 -5 -11 -11 -7 -3 -4 -4 -0 -0 -0 -0 -0 -0 -1 -0 -0 -0 -4 -0 -0 -0 -0 -0 -0 -0 -0 -0 -0 -0 -0 -0 -0 -0 -0 -1 -10 -0 -0 -0 -0 -0
-2 -2 -3 -5 -5 -2 -20 -1 -7 -2 -1 -0 -0 -4 -1 -0 -0 -0 -0 -0 -0 -0 -0 -0 -0 -0 -0 -0 -0 -0 -0 -0 -0 -34 -0 -0 -0 -0 -0 -0 -0 -0 -0 -0
-0 -0 -2 -16 -7 -0 -5 -0 -0 -0 -2 -0 -0 -0 -7 -0 -0 -11 -0 -0 -0 -0 -0 -0 -0 -0 -0 -0 -0 -0 -0 -0 -0 -0 -0 -0 -0 -11 -27 -44 -46 -7 -46 -0
-0 -0 -0 -13 -8 -0 -0 -0 -0 -0 -0 -0 -0 -0 -0 -23 -0 -0 -11 -3 -0 -0 -0 -0 -0 -0 -0 -0 -0 -0 -0 -0 -0 -0 -0 -0 -0 -0 -0 -42 -46 -62 -40 -58
-0 -0 -0 -8 -9 -5 -6 -1 -0 -0 -1 -0 -0 -0 -0 -0 -0 -0 -0 -6 -0 -0 -0 -0 -0 -0 -0 -0 -0 -0 -0 -0 -0 -0 -0 -0 -0 -0 -0 -0 -0 -36 -45 -52
-0 -0 -0 -0 -0 -5 -1 -0 -0 -1 -1 -0 -0 -0 -0 -0 -0 -0 -0 -0 -0 -0 -0 -0 -0 -0 -0 -0 -0 -0 -0 -0 -0 -0 -0 -0 -0 -0 -0 -0 -0 -0 -30 -0
-0 -0 -0 -0 -10 -9 -0 -0 -0 -0 -0 -1 -0 -0 -0 -0 -0 -0 -0 -0 -0 -0 -0 -0 -0 -37 -2 -0 -0 -0 -0 -0 -0 -0 -0 -0 -0 -0 -0 -0 -0 -0 -0 -0
-0 -0 -12 -7 -1 -0 -0 -0 -0 -3 -0 -0 -0 -0 -0 -0 -0 -0 -0 -0 -0 -0 -0 -0 -2 -0 -6 -2 -0 -0 -0 -0 -0 -0 -0 -0 -0 -0 -0 -0 -0 -0 -0 -0
-3 -9 -7 -3 -2 -1 -0 -0 -3 -19 -9 -0 -0 -0 -0 -0 -0 -0 -0 -0 -0 -0 -0 -0 -0 -0 -0 -2 -0 -0 -0 -0 -0 -0 -0 -0 -0 -0 -0 -0 -0 -0 -0 -0
-7 -1 -2 -0 -1 -0 -0 -0 -0 -2 -0 -6 -0 -0 -0 -0 -0 -0 -0 -0 -0 -0 -0 -0 -0 -0 -0 -0 -0 -0 -0 -0 -0 -0 -0 -0 -0 -0 -0 -0 -0 -0 -0 -0
-0 -0 -0 -0 -0 -0 -2 -1 -0 -1 -0 -0 -0 -0 -0 -0 -0 -0 -0 -0 -0 -0 -0 -0 -3 -0 -0 -0 -0 -0 -0 -0 -0 -0 -0 -0 -0 -0 -0 -0 -0 -0 -0 -0
-1 -0 -0 -0 -0 -1 -0 -0 -0 -0 -0 -0 -0 -0 -0 -0 -0 -2 -0 -0 -0 -0 -0 -0 -0 -0 -0 -0 -0 -0 -0 -0 -0 -0 -0 -0 -0 -0 -0 -0 -0 -0 -0 -0
-0 -0 -0 -0 -0 -0 -0 -0 -0 -0 -0 -0 -0 -0 -0 -0 -3 -0 -3 -1 -0 -0 -0 -0 -0 -0 -0 -0 -0 -0 -0 -0 -0 -0 -0 -0 -0 -0 -0 -0 -0 -0 -0 -0
-0 -0 -0 -0 -0 -0 -0 -0 -0 -0 -0 -0 -0 -0 -0 -0 -0 -0 -0 -0 -0 -6 -0 -0 -0 -0 -0 -0 -0 -0 -0 -0 -0 -0 -0 -0 -0 -0 -0 -0 -0 -0 -0 -0
-0 -0 -0 -0 -0 -0 -0 -0 -0 -0 -0 -0 -0 -0 -0 -0 -0 -0 -0 -0 -0 -1 -0 -0 -0 -0 -0 -0 -0 -0 -0 -0 -0 -0 -0 -0 -0 -0 -0 -0 -0 -0 -0 -0
-0 -0 -0 -0 -0 -0 -26 -14 -4 -1 -0 -0 -19 -1 -0 -0 -0 -0 -0 -0 -0 -0 -1 -0 -0 -0 -0 -0 -0 -0 -0 -0 -0 -0 -0 -0 -0 -0 -0 -0 -0 -0 -0 -0
-0 -0 -0 -0 -0 -0 -0 -0 -0 -0 -0 -0 -4 -0 -0 -0 -0 -0 -0 -0 -0 -0 -0 -0 -0 -0 -0 -0 -0 -0 -0 -0 -0 -0 -0 -0 -0 -0 -0 -0 -0 -0 -0 -0
-0 -0 -0 -0 -0 -0 -0 -1 -0 -0 -0 -0 -0 -5 -0 -0 -4 -4 -0 -0 -0 -0 -0 -0 -0 -0 -0 -0 -0 -0 -0 -0 -0 -0 -0 -0 -0 -0 -0 -0 -0 -0 -0 -0
Wind_Speed
23 22 22 22 23 21 20 25 35 22 16 29 30 35 33 30 36 28 29 31 36 37 35 39 34 33 28 26 24 27 24 28 38 33 29 24 22 28 25 30 26 25 32 29
20 19 19 19 20 19 21 28 30 24 22 38 37 33 34 31 33 28 28 30 29 29 35 37 34 31 26 25 27 25 23 26 36 34 24 21 21 19 21 23 26 22 24 14
20 19 18 18 17 16 19 25 32 28 27 33 36 35 33 34 32 38 34 36 37 39 39 34 36 36 32 28 26 23 24 27 29 37 30 27 29 32 30 30 31 30 31 38
18 18 17 17 16 15 18 22 28 28 31 27 31 36 38 39 40 35 36 32 33 33 36 37 35 35 34 29 27 24 25 32 31 36 40 37 38 40 39 39 39 39 46 46
15 15 13 12 14 12 18 23 26 26 33 36 34 35 32 37 38 30 30 31 31 33 33 33 35 29 29 29 24 26 25 32 31 39 40 40 44 43 44 41 40 42 44 45
7 5 7 9 9 11 16 18 20 24 29 30 35 35 35 34 38 39 41 41 38 37 30 26 27 24 24 22 24 27 27 29 31 39 35 36 44 42 37 36 32 37 43 44
7 6 7 7 6 7 12 14 16 20 28 27 31 36 39 43 42 47 47 42 41 37 24 21 19 17 19 21 24 20 25 26 27 35 29 33 33 27 28 30 30 31 35 41
12 12 13 14 13 11 15 15 16 20 28 28 31 35 39 41 44 47 51 51 40 22 19 23 23 18 20 24 21 16 17 22 30 33 36 37 39 28 28 32 39 38 38 39
15 15 15 15 14 13 15 14 14 21 28 30 28 34 35 44 43 44 46 46 27 22 23 23 23 21 18 20 23 12 17 24 26 28 36 39 38 27 28 34 45 30 33 34
15 15 14 13 15 13 13 16 10 17 27 30 30 33 35 28 29 35 31 19 21 20 24 21 22 23 21 25 25 22 19 22 28 30 34 33 30 31 29 35 38 29 30 34
16 13 12 13 14 10 9 15 10 12 25 35 30 24 29 28 27 27 23 16 17 21 21 21 22 24 21 24 22 19 19 19 22 22 24 29 22 30 26 26 31 33 34 35
15 13 12 10 7 5 10 15 14 9 16 23 26 32 28 26 22 22 19 15 16 18 18 18 18 21 19 19 24 18 20 17 22 21 26 29 32 31 30 29 31 32 35 33
13 12 10 7 7 5 6 13 18 16 17 23 27 28 30 28 26 21 22 22 19 18 17 18 20 22 18 22 24 16 16 13 23 24 25 28 35 37 35 30 35 35 31 23
10 10 9 8 7 6 6 21 18 19 20 19 19 20 22 25 24 20 18 19 17 18 19 20 19 22 20 25 20 18 16 16 22 34 36 40 39 33 35 37 36 35 30 22
10 10 10 12 15 16 18 22 23 22 20 21 25 28 25 22 23 20 18 19 21 21 25 27 29 26 26 25 25 27 21 25 32 49 40 43 44 40 38 38 38 38 36 22
12 9 12 15 17 16 18 19 18 20 18 22 26 22 23 21 19 20 23 20 20 22 28 31 30 26 28 32 37 33 30 29 29 47 40 41 43 42 40 37 37 33 18 14
20 19 19 21 22 16 20 20 18 21 15 20 26 26 24 20 17 16 19 19 21 23 26 27 28 28 28 25 38 29 33 40 43 43 40 41 39 36 31 32 28 24 18 9
20 19 18 18 20 21 22 24 21 16 17 17 18 18 18 18 16 17 18 17 16 19 18 22 24 25 7 36 40 41 44 43 41 40 39 39 36 32 29 25 19 12 9 4
20 17 17 18 20 20 19 21 22 21 21 16 17 18 15 12 10 13 15 10 20 12 5 14 3 27 30 29 23 24 25 29 32 30 27 25 29 30 31 15 7 10 10 6
20 19 16 17 19 20 11 17 16 19 19 18 14 9 12 9 9 10 11 11 14 14 13 8 17 23 25 26 27 27 27 27 27 29 30 28 28 29 29 4 10 12 6 4
19 19 15 17 10 9 13 16 16 16 16 8 5 10 12 5 9 16 16 15 14 12 12 14 15 15 10 13 19 27 27 26 27 27 28 28 29 29 28 3 2 3 2 4
18 18 18 12 13 16 16 16 16 15 10 8 8 9 9 9 8 22 18 16 15 13 16 17 16 14 11 13 13 14 18 23 27 29 30 30 29 22 22 16 6 2 2 3
9 17 14 14 13 16 17 9 9 9 8 9 8 12 12 14 20 20 18 18 17 15 16 18 17 15 13 14 15 17 19 21 24 25 26 24 26 28 19 14 4 3 2 6
10 13 17 14 12 11 10 11 12 10 8 8 8 9 15 19 21 19 18 18 16 14 15 18 19 19 20 20 21 21 22 22 23 23 23 22 13 15 15 13 10 7 7 7
7 6 22 14 9 21 22 22 23 18 6 7 7 17 20 19 20 19 18 18 17 16 11 11 20 22 22 23 23 21 20 20 20 19 14 6 4 6 5 3 4 4 5 7
9 5 23 21 23 16 23 21 11 1 9 7 21 21 20 22 21 20 20 19 17 16 17 21 23 21 21 20 21 20 19 19 18 16 12 7 5 3 4 5 5 7 9 11
23 21 17 7 5 4 5 22 22 19 15 25 23 23 23 19 21 21 20 19 18 17 19 21 20 22 23 23 23 22 21 19 17 15 14 9 7 6 4 3 5 8 9 10
Wind_Direction
287 286 287 291 292 294 290 286 280 294 289 275 277 274 272 282 279 284 284 284 282 283 286 286 287 284 287 300 302 298 299 296 288 290 299 304 298 290 292 283 290 288 282 283
290 290 292 293 292 293 287 283 284 290 285 276 273 277 270 276 277 281 285 283 283 286 284 284 284 286 292 289 288 294 295 295 291 292 293 297 295 297 289 286 290 289 305 308
289 290 291 293 295 295 286 286 284 286 280 276 275 281 276 276 278 280 279 282 283 283 281 281 282 283 287 292 289 285 289 282 283 282 286 292 286 279 283 280 283 289 281 278
290 290 291 291 293 293 288 284 283 286 283 284 276 274 276 277 278 278 281 281 277 279 280 279 279 282 283 285 291 288 284 283 284 282 281 282 280 277 277 277 282 283 274 274
292 293 298 299 298 296 288 286 286 288 282 280 283 282 280 275 276 285 275 274 279 282 277 277 279 283 281 281 288 286 289 283 289 283 282 281 280 279 279 280 281 278 280 279
312 307 305 308 306 301 302 297 295 293 287 283 280 278 278 284 280 273 270 273 279 281 284 285 284 282 282 281 283 288 287 287 290 287 288 285 277 276 282 285 285 284 280 284
320 317 315 314 310 304 305 306 307 299 292 290 284 280 278 276 277 274 269 273 275 275 288 291 290 286 278 282 287 276 283 288 288 287 293 278 284 291 293 290 291 295 298 294
309 305 303 301 299 294 295 298 299 299 292 293 290 285 281 275 276 274 271 269 268 275 278 279 281 281 282 282 285 280 281 283 285 285 280 284 283 294 298 297 289 298 299 296
307 305 303 302 300 296 294 291 292 294 292 291 292 287 282 263 272 273 276 265 258 258 265 269 267 264 276 288 296 285 281 281 283 285 280 282 286 299 299 302 288 303 305 301
311 310 310 307 304 302 297 300 286 294 291 289 290 281 280 292 278 270 286 271 252 247 259 249 258 266 281 286 289 292 297 295 281 280 282 286 293 299 308 290 291 302 304 302
315 316 314 311 307 309 303 302 297 288 294 285 288 288 278 277 279 278 275 264 265 245 240 259 269 278 283 288 292 294 296 299 290 289 284 287 295 294 304 305 304 296 296 298
321 323 321 322 327 328 318 310 316 298 294 297 287 269 271 266 276 274 279 279 265 270 270 275 288 284 289 287 288 295 294 298 298 286 284 285 295 289 291 301 300 300 296 292
333 336 338 345 346 357 344 323 309 304 305 287 269 265 259 261 277 287 279 272 280 281 297 282 282 284 290 283 284 296 305 315 301 296 291 289 283 283 285 296 290 295 298 306
351 354 355 357 339 353 356 269 276 284 284 295 290 294 284 276 283 294 301 295 302 299 298 289 290 287 291 285 290 285 292 305 305 290 289 288 284 284 281 279 284 288 296 305
358 350 341 310 286 282 286 276 278 284 288 293 283 281 284 292 285 292 297 300 296 297 288 285 282 288 290 289 287 281 284 289 294 278 293 286 279 276 277 277 282 278 280 299
98 24 320 296 286 292 291 288 297 295 298 295 278 298 304 306 312 300 294 295 299 296 288 288 288 288 287 287 282 284 286 289 292 282 292 281 268 264 271 276 277 286 310 301
178 180 188 197 207 267 196 217 301 306 312 303 246 258 277 303 311 308 305 302 298 299 299 293 292 290 290 284 239 287 282 277 277 279 270 266 258 260 273 278 282 283 309 312
185 185 188 205 207 207 208 208 201 203 191 195 197 204 212 252 308 310 293 319 325 315 312 310 302 298 266 242 254 249 248 245 242 240 249 247 253 261 268 276 280 312 320 328
183 188 220 215 210 194 199 190 189 207 197 179 168 184 185 339 44 353 1 25 322 3 205 199 132 278 265 231 218 214 210 209 220 238 249 257 253 250 240 282 321 315 311 301
196 233 176 185 191 197 45 220 150 186 174 178 177 126 167 64 64 32 42 147 177 208 190 63 203 224 228 228 219 214 209 206 205 204 238 235 228 229 232 289 307 303 339 298
177 184 153 306 52 60 124 158 159 162 184 115 128 176 194 39 158 193 197 195 188 187 174 148 202 206 228 250 195 202 206 202 200 201 210 215 231 221 202 224 11 10 14 110
167 194 270 333 148 166 167 164 180 174 159 36 60 142 108 49 95 203 188 198 177 184 165 198 205 192 256 279 287 278 242 233 229 219 218 218 211 187 179 163 133 54 39 114
352 179 143 137 139 174 182 124 114 110 91 113 46 22 13 326 235 204 201 204 214 210 197 207 203 219 246 263 269 272 268 264 256 245 228 199 194 191 168 160 129 94 91 134
115 130 163 150 129 141 138 162 174 160 127 112 87 48 282 230 202 210 226 221 200 165 188 229 253 268 277 279 285 278 276 276 271 261 245 192 144 145 143 139 127 119 130 137
125 249 240 166 148 231 242 261 245 222 94 57 63 260 230 229 214 206 218 213 196 170 134 137 302 297 289 289 288 282 277 272 273 278 305 345 63 101 99 76 66 98 117 137
3 286 249 274 277 284 311 315 302 27 18 344 233 220 235 221 221 216 210 220 211 213 244 284 303 276 275 269 272 271 268 272 289 309 324 8 34 42 41 27 70 110 127 136
219 214 181 115 77 166 152 292 261 267 141 204 206 203 216 243 224 223 237 211 229 231 248 271 263 272 272 271 266 267 277 297 309 312 307 348 352 348 6 60 90 112 118 125